Tracking 34348 objects as of 9-Jun-2026
HD Live streaming from Space Station
objects crossing your sky now

DELTA 1 DEB

Track DELTA 1 DEB now!
10-day predictions


NORAD ID: 42586
Int'l Code: 1973-086JA
Perigee: 1,507.8 km
Apogee: 1,558.0 km
Inclination: 102.4 °
Period: 116.6 minutes
Semi major axis: 7903 km
RCS: Unknown
Launch date: November 6, 1973
Source: United States (US)
Launch site: AIR FORCE WESTERN TEST RANGE (AFWTR)

Note: This is SATELLITE DEBRIS
Your satellite tracking list
Your tracking list is empty




NASA's NSSDC Master Catalog

Two Line Element Set (TLE):
1 42586U 73086JA  26158.79428326  .00000005  00000-0  40849-3 0  9995
2 42586 102.3743 181.7972 0031766 173.3609   8.3570 12.35493973565717
Source of the keplerian elements: AFSPC